AirNav   Pilot Hours Calculator
 
 259 users online  

K38 Washington County Veteran's Memorial Airport
Washington, Kansas, USA

GOING TO WASHINGTON?


FAA INFORMATION EFFECTIVE 07 NOVEMBER 2019

Location

FAA Identifier: K38
Lat/Long: 39-44-06.6000N 097-02-51.3000W
39-44.110000N 097-02.855000W
39.7351667,-97.0475833
(estimated)
Elevation: 1436.5 ft. / 437.8 m (surveyed)
Variation: 06E (1990)
From city: 5 miles S of WASHINGTON, KS
Time zone: UTC -6 (UTC -5 during Daylight Saving Time)
Zip code: 66953

Airport Operations

Airport use: Open to the public
Activation date: 01/1980
Control tower: no
ARTCC: KANSAS CITY CENTER
FSS: WICHITA FLIGHT SERVICE STATION
NOTAMs facility: ICT (NOTAM-D service available)
Attendance: UNATNDD
Wind indicator: yes, WIND INDICATOR OTS INDEFLY.
Segmented circle: no
Lights: ACTVT MIRL RY 17/35 - CTAF.
Beacon: white-green (lighted land airport)
Operates sunset to sunrise.

Airport Communications

CTAF: 122.9
  • APCH/DEP SVC PRVDD BY KANSAS CITY ARTCC ON FREQS 127.35/257.975 (MANHATTAN RCAG).

Nearby radio navigation aids

VOR radial/distance  VOR name  Freq  Var
BIEr195/(36.5)BEATRICE VOR110.6007E
MHKr330/39.5MANHATTAN VOR/DME110.2004E

 
NDB name  Hdg/Dist  Freq  Var  ID
CLAY CENTER010/21.936204ECYW -.-. -.-- .--
FAIRBURY162/27.029306EFBY ..-. -... -.--

Airport Services

Parking: tiedowns

Runway Information

Runway 17/35

Dimensions: 3406 x 60 ft. / 1038 x 18 m
Surface: concrete, in good condition
Runway edge lights: medium intensity
Gradient: N.
RUNWAY 17  RUNWAY 35
Latitude: 39-44.390798N39-43.829835N
Longitude: 097-02.853932W097-02.856890W
Elevation: 1436.5 ft.1425.9 ft.
Traffic pattern: leftleft
Runway heading: 174 magnetic, 180 true354 magnetic, 000 true
Displaced threshold: 220 ft.no
Markings: nonprecision, in good conditionnonprecision, in good condition
Touchdown point: yes, no lightsyes, no lights
Obstructions: 15 ft. road, 300 ft. from runway, 6:1 slope to clear
RWY 17 APPROACH SLOPE 34:1 TO THE DISP THLD.
68 ft. pline, marked, 1562 ft. from runway, 20:1 slope to clear

Airport Ownership and Management from official FAA records

Ownership: Publicly-owned
Owner: WASHINGTON COUNTY
CO CMSNRS, WASH CO COURTHOUSE
WASHINGTON, KS 66968
Phone 785-325-2974
Manager: BRAD FORTENIER
303 C ST.
WASHINGTON, KS 66968
Phone (785) 747-6640

Airport Operational Statistics

Aircraft based on the field: 3
Single engine airplanes: 3
    
Aircraft operations: avg 33/week *
53% local general aviation
47% transient general aviation
* for 12-month period ending 19 September 2018

Additional Remarks

24 HR PHONE AVBL FOR PUBLIC USE WITH PHONE CARD.
FOR CD CTC KANSAS CITY ARTCC AT 913-254-8508.

Instrument Procedures

NOTE: All procedures below are presented as PDF files. If you need a reader for these files, you should download the free Adobe Reader.

NOT FOR NAVIGATION. Please procure official charts for flight.
FAA instrument procedures published for use from 07 November 2019 at 0901Z to 05 December 2019 at 0900Z.

 
IAPs - Instrument Approach Procedures
RNAV (GPS) RWY 17   download (190KB)
RNAV (GPS) RWY 35   download (200KB)
NOTE: Special Take-Off Minimums/Departure Procedures apply   download

Other nearby airports with instrument procedures:

KMYZ - Marysville Municipal Airport (21 nm E)
KCYW - Clay Center Municipal Airport (21 nm S)
KFBY - Fairbury Municipal Airport (27 nm N)
KRPB - Belleville Municipal Airport (29 nm W)
KCNK - Blosser Municipal Airport (30 nm W)
 
Loc | Ops | Rwys | IFR | FBO | Links
Com | Nav | Svcs | Stats | Notes

Kansas City Aviation Department
 
Area around K38 (Washington County Veteran's Memorial Airport)
 
Road maps at: MapQuest Bing Google
 
Aerial photo
WARNING: Photo may not be current or correct
Aerial photo of K38 (Washington County Veteran's Memorial Airport)
Do you have a better or more recent aerial photo of Washington County Veteran's Memorial Airport that you would like to share? If so, please send us your photo.

 
Sectional chart

 
Airport distance calculator
Flying to Washington County Veteran's Memorial Airport? Find the distance to fly.

From to K38

Sunrise and sunset
Times for 14-Nov-2019
 Local
(UTC-6)
 Zulu
(UTC)
Morning civil twilight06:4412:44
Sunrise07:1313:13
Sunset17:1323:13
Evening civil twilight17:4123:41

Current date and time
Zulu (UTC)  14-Nov-2019 09:11:06
Local (UTC-6)  14-Nov-2019 03:11:06
 
METAR
KMYZ 
21nm E 
140855Z AUTO 01005KT 10SM OVC022 01/00 A3023 RMK AO2
KCNK 
30nm W 
140855Z AUTO 29006KT 10SM FEW025 BKN035 OVC046 03/M01 A3024 RMK AO2 SLP245 T00331011 53021
KHJH 
35nm NW 
140855Z AUTO 35004KT 10SM SCT021 01/M01 A3025 RMK AO2 T00091007
KBIE 
36nm N 
140855Z AUTO 35006KT 10SM CLR M02/M04 A3023 RMK AO2 T10181036
KMHK 
40nm SE 
140852Z AUTO 22003KT 10SM OVC029 02/M02 A3023 RMK AO2 SLP242 T00221022 51015
TAF
KMHK 
40nm SE 
140520Z 1406/1506 33003KT P6SM SCT027 BKN050 FM141200 33005KT P6SM SCT035
KFRI 
44nm S 
140500Z 1405/1511 VRB06KT 9999 SKC QNH3010INS BECMG 1409/1410 VRB06KT 9999 BKN023 QNH3020INS BECMG 1414/1415 35012KT 9999 FEW110 QNH3030INS BECMG 1423/1500 VRB06KT 9999 SKC QNH3033INS TX11/1421Z TNM08/1412Z
NOTAMs
Click for the latest NOTAMs
NOTAMs are issued by the DoD/FAA and will open in a separate window not controlled by AirNav.

 

 
 

Would you like to see your business listed on this page?

 If your business provides an interesting product or service to pilots, flight crews, aircraft, or users of the Washington County Veteran's Memorial Airport, you should consider listing it here.  To start the listing process, click on the button below
 
Add a business
 

Other Pages about Washington County Veteran's Memorial Airport

Update a link
 
Copyright © AirNav, LLC. All rights reserved. Privacy Policy  Contact